Flag for U.S.A. Weather past 2 weeks in Costa Mesa, California, U.S.A.

Now
70 °F

Partly sunny.


Feels Like: 74 °F
Forecast: 64 / 78 °F
Wind: No wind

Location: John Wayne Airport-Orange County Airport

Current Time: Aug 23, 2014 at 8:51:24 AM

Latest Report: Aug 23, 2014 at 7:53 AM


Visibility: 10 mi

Pressure: 29.96 "Hg

Humidity: 71%

Dew point: 60 °F

Location of Costa MesaLocation

Historic Weather in Costa Mesa — Graph

°F

Costa Mesa temperature yesterday

Maximum temperature yesterday: 81 °F (at 1:53 PM)
Minimum temperature yesterday: 70 °F (at 5:53 AM)
Average temperature yesterday: 74 °F

Past Weeks' High & Low Weather Summary

 TemperatureHumidityPressure
High89 °F (Aug 15, 2:53 PM)82% (Aug 15, 5:53 AM)30.00 "Hg (Aug 15, 5:53 AM)
Low68 °F (Aug 14, 2:53 AM)29% (Aug 15, 3:53 PM)29.79 "Hg (Aug 18, 4:53 PM)
Average75 °F64%29.92 "Hg
* Reported Aug 8 7:53 AM — Aug 23 7:53 AM, Costa Mesa, Weather by CustomWeather, © 2014

Note: Actual official high and low records may vary slightly from our data, if they occured in-between our weather recording intervals... More about our weather records

Advertising

Costa Mesa weather history for previous 24 hours

 ConditionsComfort  
Time TempWeatherWind HumidityBarometerVisibility
7:53 AM
Aug 23
70 °FPartly sunny.No wind71%29.96 "Hg10 mi
6:53 AM68 °FPassing clouds.3 mph76%29.96 "Hg10 mi
5:53 AM68 °FPassing clouds.No wind76%29.95 "Hg10 mi
4:53 AM69 °FOvercast.3 mph73%29.94 "Hg10 mi
3:53 AM69 °FPassing clouds.No wind73%29.93 "Hg10 mi
2:53 AM70 °FPassing clouds.No wind71%29.94 "Hg10 mi
1:53 AM70 °FPassing clouds.No wind73%29.94 "Hg10 mi
12:53 AM70 °FOvercast.3 mph76%29.94 "Hg10 mi
11:53 PM
Aug 22
70 °FOvercast.3 mph76%29.95 "Hg10 mi
10:53 PM70 °FPassing clouds.No wind76%29.96 "Hg10 mi
9:53 PM71 °FPassing clouds.No wind73%29.95 "Hg10 mi
8:53 PM71 °FPassing clouds.5 mph73%29.94 "Hg10 mi
7:53 PM73 °FScattered clouds.5 mph71%29.92 "Hg10 mi
6:53 PM74 °FPassing clouds.8 mph69%29.92 "Hg10 mi
5:53 PM76 °FScattered clouds.10 mph64%29.92 "Hg10 mi
4:53 PM78 °FScattered clouds.9 mph60%29.91 "Hg10 mi
3:53 PM80 °FScattered clouds.8 mph56%29.91 "Hg10 mi
2:53 PM81 °FScattered clouds.8 mph54%29.93 "Hg10 mi
1:53 PM81 °FScattered clouds.5 mph54%29.95 "Hg10 mi
12:53 PM79 °FScattered clouds.9 mph58%29.96 "Hg10 mi
11:53 AM77 °FScattered clouds.5 mph62%29.97 "Hg10 mi
10:53 AM75 °FScattered clouds.5 mph66%29.98 "Hg10 mi
9:53 AM75 °FPartly sunny.3 mph66%29.97 "Hg9 mi
8:53 AM72 °FPartly sunny.No wind76%29.96 "Hg9 mi
Weather by CustomWeather, © 2014

See weather overviewHow to use our weather pages